STARLINK-3923 (52489 NORAD) Tracking and Keplerian Element Data

This shows tracking and keplerian element data for the satellite.

Feedback or suggestion? Click here.




ElementValue
Catalog52489
NameSTARLINK-3923
Epoch Orbit130
Epoch Day192.91667824
Epoch Year2022
RAAN300.7777
Inclination53.2173
Eccentricity0.0001667
Argument of Perigee40.039
Mean Anonmoly51.5554
Mean Motion15.30757451
Decay Rate-0.01066723
L11 52489U 22049AQ 22192.91667824 -.01066723 00000+0 -38596-1 0 9992
L22 52489 53.2173 300.7777 0001667 40.0390 51.5554 15.30757451 1305

Live tracking and technical data element details for STARLINK-3923 (NORAD 52489). STARLINK-3923 can be tracked NOW for your location showing map with azimuth and elevation plus other details from your city location.

Track the satellite on the map from your city or location and see movement details for azimuth, elevation, latitude, longitude, range, height, and movement on the map or in text.







IsCatalogInMostPopularTable: catalog: 52489, numindb: 7
Update: records affected: 1



GetName: 52489 STARLINK-3923

Hit Count: updated at: Sun, 14 Aug 2022 00:25:19 GMT